Location: Ravencliff
(37.6982°N, 81.4812°W)
Time: 19:56:40
(UTC+00:00)

ACS3 Solar Sail - Pass Details

Date: 23 April 2026
Orbit: 894 x 947 km, 97.2° (Epoch: 12 May)

Event Time Altitude Azimuth Distance (km) Brightness Sun altitude
Rises 08:20:09 0° 348° (NNW) 3,555 5.1 -25.0°
Reaches altitude 10° 08:24:38 10° 315° (NW) 2,622 4.0 -24.3°
Enters shadow 08:26:04 11° 301° (WNW) 2,542 3.8 -24.1°
